Location: Julian California
(33.0790°N, 116.6010°W)
Time: 21:06:44
(UTC-07:00)

ASTEX 1 - Pass Details

Date: 19 May 2017
Orbit: 721 x 743 km, 92.7° (Epoch: 16 October)

Event Time Altitude Azimuth Distance (km) Brightness Sun altitude
Exits shadow 21:04:24 25° 118° (ESE) 1,453 4.3 -15.6°
Maximum altitude 21:06:17 33° 78° (ENE) 1,212 4.2 -15.9°
Drops below altitude 10° 21:10:40 10° 15° (NNE) 2,226 6.2 -16.6°
Sets 21:13:07 0° 6° (N) 3,148 7.1 -17.0°
